Marianna, WV

5:35 AM EDT on September 25, 2016 (GMT -0400)
Pineville

Weather History for KI16 - July, 2014

Change the Weather History Date:

Saturday, July 5, 2014

  Actual Average (KBKW) Record (KBKW)
Temperature  
Mean Temperature 66 °F 71 °F  
Max Temperature 83 °F 80 °F 94 °F (1934)
Min Temperature 50 °F 61 °F 40 °F (1940)
Degree Days  
Heating Degree Days 0 0  
Month to date heating degree days 0  
Since 1 June heating degree days 39  
Since 1 July heating degree days 0  
Cooling Degree Days 2 6  
Month to date cooling degree days 30  
Year to date cooling degree days 182  
Since 1 June cooling degree days 141  
Growing Degree Days 16 (Base 50)    
Moisture  
Dew Point 56 °F    
Average Humidity 76    
Maximum Humidity 100    
Minimum Humidity 36    
Precipitation  
Precipitation 0.00 in 0.15 in 2.30 in (2009)
Month to date precipitation 0.75  
Year to date precipitation 21.91  
Snow  
Snow 0.00 in - - ()
Month to date snowfall  
Since 1 September snowfall  
Snow Depth -    
Sea Level Pressure  
Sea Level Pressure 30.33 in    
Wind  
Wind Speed - (North)    
Max Wind Speed -    
Max Gust Speed -    
Visibility 8 miles    
Events Fog    
T = Trace of Precipitation, MM = Missing Value Source: NWS Daily Summary

Daily Weather History Graph

Daily Weather History Graph

Search for Another Location

Airport or City:

Trip Planner

Search our weather history database for the weather conditions in past years. The results will help you decide how hot, cold, wet, or windy it might be!

Date:

Astronomy

Jul. 05, 2014 Rise Set
Actual Time 6:10 AM EDT 8:50 PM EDT
Civil Twilight 5:39 AM EDT 9:21 PM EDT
Nautical Twilight 5:01 AM EDT 10:00 PM EDT
Astronomical Twilight 4:17 AM EDT 10:43 PM EDT
Moon 1:54 PM EDT (7/5) 12:51 AM EDT (7/5)
Length of Visible Light 15h 42m
Length of Day
14h 40m
First Quarter, 52% of the Moon is Illuminated
Jul 5
First Quarter
Jul 12
Full
Jul 18
Last Quarter
Jul 26
New
Aug 3
First Quarter

Hourly Weather History & Observations

Time (EDT) Temp. Heat Index Dew Point Humidity Pressure Visibility Wind Dir Wind Speed Gust Speed Precip Events Conditions
12:15 AM 56.3 °F - 56.1 °F 99% 30.35 in 10.0 mi North - - N/A   Scattered Clouds
12:35 AM 55.8 °F - 55.6 °F 99% 30.35 in 7.0 mi North - - N/A   Clear
12:55 AM 55.6 °F - 55.6 °F 100% 30.35 in 7.0 mi North - - N/A   Clear
1:15 AM 55.4 °F - 55.4 °F 100% 30.35 in 7.0 mi North - - N/A   Clear
1:35 AM 54.9 °F - 54.9 °F 100% 30.35 in 7.0 mi North - - N/A   Clear
1:55 AM 54.5 °F - 54.5 °F 100% 30.35 in 7.0 mi North - - N/A   Scattered Clouds
2:15 AM 54.5 °F - 54.5 °F 100% 30.35 in 7.0 mi North - - N/A   Scattered Clouds
2:35 AM 53.8 °F - 53.8 °F 100% 30.35 in 7.0 mi North - - N/A   Clear
2:55 AM 53.6 °F - 53.6 °F 100% 30.35 in 5.0 mi North - - N/A   Clear
3:15 AM 53.6 °F - 53.6 °F 100% 30.35 in 5.0 mi North - - N/A   Clear
3:35 AM 53.1 °F - 53.1 °F 100% 30.35 in 5.0 mi North - - N/A   Clear
3:55 AM 52.7 °F - 52.7 °F 100% 30.35 in 5.0 mi North - - N/A   Clear
4:15 AM 52.7 °F - 52.7 °F 100% 30.35 in 5.0 mi North - - N/A   Clear
4:35 AM 52.0 °F - 52.0 °F 100% 30.35 in 5.0 mi North - - N/A   Clear
4:55 AM 51.8 °F - 51.8 °F 100% 30.35 in 4.0 mi North - - N/A   Clear
5:15 AM 51.3 °F - 51.3 °F 100% 30.35 in 5.0 mi North - - N/A   Clear
5:35 AM 50.9 °F - 50.9 °F 100% 30.36 in 7.0 mi North - - N/A   Clear
5:55 AM 51.3 °F - 51.3 °F 100% 30.37 in 4.0 mi North - - N/A   Mostly Cloudy
6:15 AM 52.2 °F - 52.2 °F 100% 30.38 in 1.2 mi North - - N/A   Overcast
6:35 AM 52.2 °F - 52.2 °F 100% 30.38 in 0.5 mi North - - N/A Fog Fog
6:55 AM 52.3 °F - 52.3 °F 100% 30.38 in 0.2 mi North - - N/A Fog Fog
7:15 AM 52.7 °F - 52.7 °F 100% 30.39 in 0.5 mi North - - N/A Fog Fog
7:35 AM 53.2 °F - 53.2 °F 100% 30.39 in 0.5 mi North - - N/A Fog Fog
7:55 AM 53.8 °F - 53.8 °F 100% 30.39 in 0.8 mi North - - N/A   Overcast
8:15 AM 54.3 °F - 54.3 °F 100% 30.40 in 1.8 mi North - - N/A   Overcast
8:35 AM 55.6 °F - 55.6 °F 100% 30.40 in 7.0 mi North - - N/A   Mostly Cloudy
8:55 AM 58.1 °F - 58.1 °F 100% 30.40 in 10.0 mi North - - N/A   Clear
9:15 AM 60.1 °F - 58.1 °F 93% 30.40 in 10.0 mi North - - N/A   Clear
9:35 AM 62.8 °F - 59.0 °F 87% 30.40 in 10.0 mi North - - N/A   Clear
9:55 AM 65.7 °F - 58.6 °F 78% 30.39 in 10.0 mi North - - N/A   Clear
10:15 AM 68.5 °F - 56.8 °F 66% 30.39 in 10.0 mi North - - N/A   Clear
10:35 AM 70.9 °F - 53.8 °F 55% 30.39 in 10.0 mi North - - N/A   Clear
10:55 AM 71.4 °F - 52.9 °F 52% 30.38 in 10.0 mi North - - N/A   Clear
11:15 AM 73.2 °F - 54.1 °F 51% 30.37 in 10.0 mi North - - N/A   Clear
11:35 AM 74.7 °F - 52.7 °F 46% 30.36 in 10.0 mi North - - N/A   Clear
11:55 AM 74.8 °F - 53.8 °F 48% 30.36 in 10.0 mi North - - N/A   Clear
12:15 PM 75.4 °F - 53.6 °F 47% 30.35 in 10.0 mi North - - N/A   Clear
12:35 PM 77.0 °F - 52.3 °F 42% 30.35 in 10.0 mi North - - N/A   Clear
12:55 PM 77.5 °F - 53.6 °F 43% 30.35 in 10.0 mi North - - N/A   Clear
1:15 PM 77.5 °F - 54.0 °F 44% 30.34 in 10.0 mi North - - N/A   Clear
1:35 PM 79.3 °F - 55.0 °F 43% 30.34 in 10.0 mi North - - N/A   Clear
1:55 PM 79.0 °F - 55.4 °F 44% 30.34 in 10.0 mi North - - N/A   Clear
2:15 PM 80.6 °F 80.4 °F 55.0 °F 41% 30.34 in 10.0 mi North - - N/A   Clear
2:35 PM 79.7 °F - 54.5 °F 42% 30.34 in 10.0 mi North - - N/A   Clear
2:55 PM 81.0 °F 80.4 °F 53.4 °F 38% 30.33 in 10.0 mi North - - N/A   Clear
3:15 PM 81.3 °F 80.7 °F 53.8 °F 38% 30.32 in 10.0 mi North - - N/A   Clear
3:35 PM 81.7 °F 81.1 °F 54.1 °F 39% 30.31 in 10.0 mi North - - N/A   Clear
3:55 PM 82.8 °F 81.7 °F 54.1 °F 37% 30.30 in 10.0 mi North - - N/A   Clear
4:15 PM 83.5 °F 82.4 °F 54.5 °F 37% 30.30 in 10.0 mi North - - N/A   Clear
4:35 PM 82.6 °F 81.6 °F 54.0 °F 37% 30.29 in 10.0 mi North - - N/A   Clear
4:55 PM 82.4 °F 81.7 °F 54.9 °F 39% 30.29 in 10.0 mi North - - N/A   Clear
5:15 PM 82.9 °F 81.8 °F 53.6 °F 36% 30.29 in 10.0 mi North - - N/A   Clear
5:35 PM 81.7 °F 81.5 °F 56.8 °F 43% 30.28 in 10.0 mi North - - N/A   Clear
5:55 PM 83.1 °F 82.7 °F 57.6 °F 42% 30.28 in 10.0 mi North - - N/A   Clear
6:15 PM 81.5 °F 81.7 °F 59.0 °F 46% 30.28 in 10.0 mi North - - N/A   Clear
6:35 PM 80.6 °F 81.2 °F 59.5 °F 49% 30.28 in 10.0 mi North - - N/A   Clear
6:55 PM 78.3 °F - 61.7 °F 57% 30.27 in 10.0 mi North - - N/A   Clear
7:15 PM 75.2 °F - 62.2 °F 64% 30.27 in 10.0 mi North - - N/A   Clear
7:35 PM 72.5 °F - 64.8 °F 77% 30.27 in 10.0 mi North - - N/A   Clear
7:55 PM 71.4 °F - 64.4 °F 78% 30.27 in 10.0 mi North - - N/A   Clear
8:15 PM 70.3 °F - 64.8 °F 82% 30.26 in 10.0 mi North - - N/A   Clear
8:35 PM 68.9 °F - 64.2 °F 85% 30.26 in 10.0 mi North - - N/A   Clear
8:55 PM 67.1 °F - 63.7 °F 89% 30.26 in 10.0 mi North - - N/A   Clear
9:15 PM 65.3 °F - 63.0 °F 92% 30.25 in 10.0 mi North - - N/A   Clear
9:55 PM 63.5 °F - 61.9 °F 94% 30.26 in 10.0 mi North - - N/A   Clear
10:15 PM 62.4 °F - 60.8 °F 94% 30.26 in 10.0 mi North - - N/A   Clear
10:35 PM 61.7 °F - 60.6 °F 96% 30.26 in 10.0 mi North - - N/A   Clear
10:55 PM 61.2 °F - 60.3 °F 97% 30.25 in 10.0 mi North - - N/A   Clear
11:15 PM 60.8 °F - 59.9 °F 97% 30.26 in 10.0 mi North - - N/A   Clear
11:35 PM 60.4 °F - 59.5 °F 97% 30.26 in 10.0 mi North - - N/A   Clear
11:55 PM 59.9 °F - 59.2 °F 97% 30.26 in 10.0 mi North - - N/A   Clear